KF4ERV-4 Weather Reports


time (UTC)temp
C
wind
direction
speed
KPH
gust
KPH
rain 1hr
cm
rain 24hr
cm
rain mn
cm
humidity
%
barometer
mb
20260906130003 23 19 0.0 0.0 0.00 0.00 0.00 41 1015.5
20260906125008 23 4 0.0 0.0 0.00 0.00 0.00 41 1015.0
20260906124500 23 14 0.0 0.0 0.00 0.00 0.00 41 1014.9
20260906123506 23 13 0.0 0.0 0.00 0.00 0.00 41 1014.9
20260906123109 23 17 0.0 0.0 0.00 0.00 0.00 41 1015.0
20260906122959 23 17 0.0 0.0 0.00 0.00 0.00 41 1015.0
20260906122506 23 24 0.0 0.0 0.00 0.00 0.00 41 1014.9
20260906122131 23 1 0.0 0.0 0.00 0.00 0.00 41 1014.9
20260906122005 23 1 0.0 0.0 0.00 0.00 0.00 41 1014.9
20260906121639 23 6 0.0 0.0 0.00 0.00 0.00 41 1014.9
20260906121149 23 11 0.0 0.0 0.00 0.00 0.00 41 1015.0
20260906120659 23 346 0.0 0.0 0.00 0.00 0.00 41 1015.0
20260906120006 23 6 0.0 0.0 0.00 0.00 0.00 41 1014.9
20260906115511 23 327 0.0 0.0 0.00 0.00 0.00 41 1014.9
20260906115232 23 358 0.0 0.0 0.00 0.00 0.00 41 1014.9
20260906115000 23 358 0.0 0.0 0.00 0.00 0.00 41 1014.9
20260906114738 23 10 0.0 0.0 0.00 0.00 0.00 41 1014.8
20260906114506 23 10 0.0 0.0 0.00 0.00 0.00 41 1014.8
20260906114249 23 5 0.0 0.0 0.00 0.00 0.00 41 1014.2
20260906114009 23 5 0.0 0.0 0.00 0.00 0.00 41 1014.2
20260906113759 23 357 0.0 0.0 0.00 0.00 0.00 41 1014.1
20260906113458 23 357 0.0 0.0 0.00 0.00 0.00 41 1014.1
20260906113309 23 327 0.0 0.0 0.00 0.00 0.00 41 1013.9
20260906112820 23 335 0.0 0.0 0.00 0.00 0.00 41 1013.9
20260906112329 23 357 0.0 0.0 0.00 0.00 0.00 41 1014.0
20260906112008 23 357 0.0 0.0 0.00 0.00 0.00 41 1014.0
20260906110903 23 354 0.0 0.0 0.00 0.00 0.00 41 1013.9
20260906110507 23 354 0.0 0.0 0.00 0.00 0.00 41 1013.9
20260906110410 23 350 0.0 0.0 0.00 0.00 0.00 41 1013.9
20260906110008 23 350 0.0 0.0 0.00 0.00 0.00 41 1013.9
20260906105922 23 356 0.0 1.6 0.00 0.00 0.00 41 1013.9
20260906105512 23 356 0.0 1.6 0.00 0.00 0.00 41 1013.9
20260906105004 23 328 0.0 1.6 0.00 0.00 0.00 41 1014.0
20260906103004 23 359 0.0 0.0 0.00 0.00 0.00 41 1013.9
20260906102514 23 347 0.0 0.0 0.00 0.00 0.00 41 1013.9
20260906101959 23 349 0.0 0.0 0.00 0.00 0.00 41 1013.9
20260906101504 23 324 0.0 0.0 0.00 0.00 0.00 41 1013.9
20260906101007 23 343 0.0 0.0 0.00 0.00 0.00 41 1013.9
20260906100609 23 354 0.0 0.0 0.00 0.00 0.00 41 1013.9
20260906100508 23 354 0.0 0.0 0.00 0.00 0.00 41 1013.9
20260906100119 23 338 0.0 0.0 0.00 0.00 0.00 41 1013.9
20260906095629 23 328 0.0 1.6 0.00 0.00 0.00 41 1014.0
20260906095515 23 328 0.0 1.6 0.00 0.00 0.00 41 1014.0
20260906095141 23 337 0.0 1.6 0.00 0.00 0.00 41 1013.4
20260906094649 23 312 0.0 1.6 0.00 0.00 0.00 41 1013.6
20260906094159 23 324 0.0 0.0 0.00 0.00 0.00 41 1013.4
20260906093718 23 316 0.0 0.0 0.00 0.00 0.00 41 1013.0
20260906093219 23 335 0.0 0.0 0.00 0.00 0.00 41 1012.9
20260906093009 23 335 0.0 0.0 0.00 0.00 0.00 41 1012.9
20260906092731 23 328 0.0 0.0 0.00 0.00 0.00 41 1012.9
20260906092242 23 315 0.0 0.0 0.00 0.00 0.00 41 1012.9
20260906092002 23 315 0.0 0.0 0.00 0.00 0.00 41 1012.9
20260906091749 23 328 0.0 0.0 0.00 0.00 0.00 41 1012.9
20260906091259 23 357 0.0 0.0 0.00 0.00 0.00 41 1013.0
20260906091013 23 357 0.0 0.0 0.00 0.00 0.00 41 1013.0
20260906090809 23 344 0.0 0.0 0.00 0.00 0.00 41 1012.9
20260906090502 23 344 0.0 0.0 0.00 0.00 0.00 41 1012.9
20260906090005 23 318 0.0 0.0 0.00 0.00 0.00 41 1013.1
20260906085350 23 331 0.0 0.0 0.00 0.00 0.00 41 1013.0
20260906085002 23 331 0.0 0.0 0.00 0.00 0.00 41 1013.0
20260906084503 23 303 0.0 0.0 0.00 0.00 0.00 41 1012.9
20260906084402 24 333 0.0 0.0 0.00 0.00 0.00 41 1012.9
20260906084012 24 333 0.0 0.0 0.00 0.00 0.00 41 1012.9
20260906083911 24 346 0.0 0.0 0.00 0.00 0.00 41 1012.9
20260906083507 24 346 0.0 0.0 0.00 0.00 0.00 41 1012.9
20260906082934 24 321 0.0 0.0 0.00 0.00 0.00 41 1012.9
20260906082510 24 321 0.0 0.0 0.00 0.00 0.00 41 1012.9
20260906082439 24 301 0.0 0.0 0.00 0.00 0.00 41 1012.9
20260906082005 24 301 0.0 0.0 0.00 0.00 0.00 41 1012.9
20260906081459 24 310 0.0 0.0 0.00 0.00 0.00 41 1012.9
20260906081011 24 313 0.0 0.0 0.00 0.00 0.00 41 1012.9
20260906080503 24 315 0.0 0.0 0.00 0.00 0.00 41 1013.0
20260906080006 24 342 0.0 0.0 0.00 0.00 0.00 41 1013.0
20260906075459 25 319 0.0 0.0 0.00 0.00 0.00 41 1013.1
20260906075049 25 326 0.0 0.0 0.00 0.00 0.00 41 1012.9
20260906074504 25 315 0.0 0.0 0.00 0.00 0.00 43 1012.9
20260906073129 25 322 0.0 0.0 0.00 0.00 0.00 56 1012.9
20260906073004 25 322 0.0 0.0 0.00 0.00 0.00 56 1012.9
20260906072639 25 336 0.0 0.0 0.00 0.00 0.00 60 1012.9
20260906072511 25 336 0.0 0.0 0.00 0.00 0.00 60 1012.9
20260906072152 25 326 0.0 0.0 0.00 0.00 0.00 50 1012.9
20260906072008 25 326 0.0 0.0 0.00 0.00 0.00 50 1012.9
20260906071208 25 319 0.0 0.0 0.00 0.00 0.00 1013.1
20260906070719 25 359 0.0 0.0 0.00 0.00 0.00 1012.9
20260906070506 25 359 0.0 0.0 0.00 0.00 0.00 1012.9
20260906070237 25 339 0.0 0.0 0.00 0.00 0.00 5 1013.1
20260906065958 25 339 0.0 0.0 0.00 0.00 0.00 5 1013.1
20260906065741 25 308 0.0 0.0 0.00 0.00 0.00 10 1012.9
20260906065503 25 308 0.0 0.0 0.00 0.00 0.00 10 1012.9
20260906065250 25 292 0.0 0.0 0.00 0.00 0.00 19 1013.0
20260906065009 25 292 0.0 0.0 0.00 0.00 0.00 19 1013.0
20260906064801 26 304 0.0 0.0 0.00 0.00 0.00 23 1012.9
20260906064309 26 309 0.0 0.0 0.00 0.00 0.00 31 1013.0
20260906064001 26 309 0.0 0.0 0.00 0.00 0.00 31 1013.0
20260906063333 26 324 0.0 0.0 0.00 0.00 0.00 37 1013.0
20260906062845 26 319 0.0 0.0 0.00 0.00 0.00 37 1013.1
20260906062352 26 344 0.0 0.0 0.00 0.00 0.00 38 1013.0
20260906062000 26 344 0.0 0.0 0.00 0.00 0.00 38 1013.0
20260906061900 26 325 0.0 0.0 0.00 0.00 0.00 38 1013.1
20260906061008 26 343 0.0 0.0 0.00 0.00 0.00 38 1012.9
20260906060500 26 358 0.0 0.0 0.00 0.00 0.00 38 1013.1
20260906060429 26 350 0.0 0.0 0.00 0.00 0.00 38 1013.0
20260906060001 26 350 0.0 0.0 0.00 0.00 0.00 38 1013.0
20260906054958 26 24 0.0 0.0 0.00 0.00 0.00 41 1012.9
20260906054459 26 9 0.0 0.0 0.00 0.00 0.00 43 1012.9
20260906053503 26 341 0.0 0.0 0.00 0.00 0.00 46 1012.9
20260906053008 26 334 0.0 0.0 0.00 0.00 0.00 48 1013.0
20260906052547 26 319 0.0 0.0 0.00 0.00 0.00 51 1012.9
20260906052003 26 355 0.0 0.0 0.00 0.00 0.00 54 1013.0
20260906051609 26 318 0.0 0.0 0.00 0.00 0.00 56 1012.9
20260906051505 26 318 0.0 0.0 0.00 0.00 0.00 56 1012.9
20260906050958 27 315 0.0 0.0 0.00 0.00 0.00 58 1012.9
20260906050005 27 289 0.0 0.0 0.00 0.00 0.00 60 1012.9
20260906045507 27 292 0.0 0.0 0.00 0.00 0.00 60 1013.0
20260906045209 27 321 0.0 0.0 0.00 0.00 0.00 61 1012.9
20260906045015 27 321 0.0 0.0 0.00 0.00 0.00 61 1012.9
20260906044710 27 306 0.0 0.0 0.00 0.00 0.00 62 1012.9
20260906044220 27 313 0.0 0.0 0.00 0.00 0.00 62 1012.9
20260906043730 27 313 0.0 0.0 0.00 0.00 0.00 63 1012.9
20260906043507 27 313 0.0 0.0 0.00 0.00 0.00 63 1012.9
20260906042006 27 20 0.0 0.0 0.00 0.00 0.00 64 1012.9
20260906041811 27 288 0.0 0.0 0.00 0.00 0.00 65 1013.0
20260906041504 27 288 0.0 0.0 0.00 0.00 0.00 65 1013.0
20260906041008 27 6 0.0 0.0 0.00 0.00 0.00 66 1012.9
20260906040504 27 26 0.0 0.0 0.00 0.00 0.00 67 1012.9
20260906040009 27 314 0.0 0.0 0.00 0.00 0.00 69 1012.9
20260906035459 27 332 0.0 0.0 0.00 0.00 0.00 70 1013.0
20260906035402 27 298 0.0 0.0 0.00 0.00 0.00 71 1012.8
20260906035003 27 298 0.0 0.0 0.00 0.00 0.00 71 1012.8
20260906034913 28 296 0.0 0.0 0.00 0.00 0.00 72 1012.7
20260906034504 28 296 0.0 0.0 0.00 0.00 0.00 72 1012.7
20260906034422 28 279 0.0 0.0 0.00 0.00 0.00 73 1012.5
20260906034008 28 279 0.0 0.0 0.00 0.00 0.00 73 1012.5
20260906033504 28 281 0.0 0.0 0.00 0.00 0.00 74 1012.8
20260906033004 28 273 0.0 0.0 0.00 0.00 0.00 75 1012.6
20260906032510 28 292 0.0 0.0 0.00 0.00 0.00 75 1012.0
20260906031957 28 291 0.0 0.0 0.00 0.00 0.00 76 1012.1
20260906031501 28 286 0.0 0.0 0.00 0.00 0.00 77 1012.4
20260906031029 28 302 0.0 0.0 0.00 0.00 0.00 77 1012.7
20260906030507 28 315 0.0 0.0 0.00 0.00 0.00 78 1012.9
20260906025959 28 302 0.0 0.0 0.00 0.00 0.00 79 1012.9
20260906025558 28 292 0.0 0.0 0.00 0.00 0.00 79 1012.9
20260906025108 28 292 0.0 0.0 0.00 0.00 0.00 79 1013.0
20260906025004 28 292 0.0 0.0 0.00 0.00 0.00 79 1013.0
20260906024618 28 301 0.0 0.0 0.00 0.00 0.00 80 1012.9
20260906024507 28 301 0.0 0.0 0.00 0.00 0.00 80 1012.9
20260906024129 28 301 0.0 0.0 0.00 0.00 0.00 80 1012.9
20260906023638 28 292 0.0 0.0 0.00 0.00 0.00 81 1013.0
20260906023503 28 292 0.0 0.0 0.00 0.00 0.00 81 1013.0
20260906023149 28 292 0.0 0.0 0.00 0.00 0.00 81 1013.0
20260906023006 28 292 0.0 0.0 0.00 0.00 0.00 81 1013.0
20260906022700 28 309 0.0 0.0 0.00 0.00 0.00 81 1013.0
20260906022458 28 309 0.0 0.0 0.00 0.00 0.00 81 1013.0
20260906022000 28 315 0.0 0.0 0.00 0.00 0.00 81 1012.6
20260906021718 28 315 0.0 0.0 0.00 0.00 0.00 81 1012.0
20260906021504 28 315 0.0 0.0 0.00 0.00 0.00 81 1012.0
20260906021230 28 315 0.0 0.0 0.00 0.00 0.00 81 1011.9
20260906021006 28 315 0.0 0.0 0.00 0.00 0.00 81 1011.9
20260906020249 28 309 0.0 0.0 0.00 0.00 0.00 80 1011.9
20260906020002 28 309 0.0 0.0 0.00 0.00 0.00 80 1011.9
20260906015802 28 315 0.0 0.0 0.00 0.00 0.00 80 1011.9
20260906015309 28 295 0.0 0.0 0.00 0.00 0.00 80 1011.9
20260906015007 28 295 0.0 0.0 0.00 0.00 0.00 80 1011.9
20260906014818 28 292 0.0 0.0 0.00 0.00 0.00 80 1011.9
20260906014459 28 292 0.0 0.0 0.00 0.00 0.00 80 1011.9
20260906014329 29 311 0.0 0.0 0.00 0.00 0.00 80 1012.0
20260906014003 29 311 0.0 0.0 0.00 0.00 0.00 80 1012.0
20260906013505 29 300 0.0 0.0 0.00 0.00 0.00 79 1011.9
20260906013348 29 265 0.0 0.0 0.00 0.00 0.00 79 1012.1
20260906012957 29 265 0.0 0.0 0.00 0.00 0.00 79 1012.1
20260906012500 29 290 0.0 0.0 0.00 0.00 0.00 78 1011.9
20260906012004 30 291 0.0 0.0 0.00 0.00 0.00 77 1011.9
20260906011918 30 289 0.0 0.0 0.00 0.00 0.00 77 1011.9
20260906011506 30 289 0.0 0.0 0.00 0.00 0.00 77 1011.9
20260906011429 30 307 0.0 0.0 0.00 0.00 0.00 77 1011.9
20260906010943 30 349 0.0 0.0 0.00 0.00 0.00 77 1011.9
20260906010501 30 349 0.0 0.0 0.00 0.00 0.00 77 1011.9
20260906005958 30 57 0.0 0.0 0.00 0.00 0.00 77 1011.9
20260906005508 30 350 0.0 0.0 0.00 0.00 0.00 77 1011.9
20260906004959 30 84 0.0 0.0 0.00 0.00 0.00 77 1012.0
20260906004505 30 90 0.0 0.0 0.00 0.00 0.00 77 1012.1
20260906004005 30 98 0.0 0.0 0.00 0.00 0.00 78 1011.9
20260906003457 30 299 0.0 0.0 0.00 0.00 0.00 78 1012.1
20260906003000 31 296 0.0 0.0 0.00 0.00 0.00 78 1011.9
20260906002608 31 10 0.0 0.0 0.00 0.00 0.00 78 1012.0
20260906002503 31 10 0.0 0.0 0.00 0.00 0.00 78 1012.0
20260906002118 31 90 0.0 0.0 0.00 0.00 0.00 78 1011.9
20260906002006 31 90 0.0 0.0 0.00 0.00 0.00 78 1011.9
20260906001628 31 246 0.0 1.6 0.00 0.00 0.00 78 1011.9
20260906001458 31 246 0.0 1.6 0.00 0.00 0.00 78 1011.9
20260906001139 32 197 0.0 1.6 0.00 0.00 0.00 77 1011.9
20260906000648 32 284 0.0 0.0 0.00 0.00 0.00 76 1011.9
20260906000504 32 284 0.0 0.0 0.00 0.00 0.00 76 1011.9
20260906000204 32 323 0.0 0.0 0.00 0.00 0.00 76 1012.0
20260906000010 32 323 0.0 0.0 0.00 0.00 0.00 76 1012.0
20260905235710 32 9 0.0 0.0 0.00 0.00 0.00 75 1011.9
20260905235002 32 4 0.0 0.0 0.00 0.00 0.00 75 1012.1
20260905234505 33 314 0.0 0.0 0.00 0.00 0.00 74 1012.0
20260905234243 33 299 0.0 0.0 0.00 0.00 0.00 74 1012.0
20260905233957 33 299 0.0 0.0 0.00 0.00 0.00 74 1012.0
20260905233748 33 327 0.0 0.0 0.00 0.00 0.00 73 1012.0
20260905233502 33 327 0.0 0.0 0.00 0.00 0.00 73 1012.0
20260905233258 33 329 0.0 0.0 0.00 0.00 0.00 73 1012.0
20260905233003 33 329 0.0 0.0 0.00 0.00 0.00 73 1012.0
20260905232809 33 315 0.0 0.0 0.00 0.00 0.00 72 1012.0
20260905232507 33 315 0.0 0.0 0.00 0.00 0.00 72 1012.0
20260905232318 33 324 0.0 0.0 0.00 0.00 0.00 72 1011.9
20260905231958 33 324 0.0 0.0 0.00 0.00 0.00 72 1011.9
20260905231830 33 320 0.0 0.0 0.00 0.00 0.00 71 1011.9
20260905231501 33 320 0.0 0.0 0.00 0.00 0.00 71 1011.9
20260905231004 33 303 0.0 0.0 0.00 0.00 0.00 71 1012.0
20260905230507 33 311 0.0 0.0 0.00 0.00 0.00 70 1011.9
20260905225959 33 308 0.0 0.0 0.00 0.00 0.00 69 1012.0
20260905225909 33 302 0.0 1.6 0.00 0.00 0.00 69 1012.1
20260905225502 33 302 0.0 1.6 0.00 0.00 0.00 69 1012.1
20260905225428 33 311 0.0 1.6 0.00 0.00 0.00 68 1011.9
20260905225005 33 311 0.0 1.6 0.00 0.00 0.00 68 1011.9
20260905224501 34 309 0.0 1.6 0.00 0.00 0.00 67 1012.0
20260905224000 34 295 0.0 1.6 0.00 0.00 0.00 66 1011.9
20260905223459 34 301 0.0 1.6 0.00 0.00 0.00 66 1012.0
20260905223006 35 314 0.0 0.0 0.00 0.00 0.00 66 1011.3
20260905222501 34 299 0.0 0.0 0.00 0.00 0.00 66 1011.9
20260905222002 34 276 0.0 0.0 0.00 0.00 0.00 67 1011.9
20260905221504 35 306 0.0 0.0 0.00 0.00 0.00 67 1011.9
20260905221007 35 317 0.0 0.0 0.00 0.00 0.00 67 1011.5
20260905220459 35 308 0.0 0.0 0.00 0.00 0.00 67 1011.9
20260905220108 35 323 0.0 1.6 0.00 0.00 0.00 67 1012.1
20260905220003 35 323 0.0 1.6 0.00 0.00 0.00 67 1012.1
20260905215618 35 332 0.0 1.6 0.00 0.00 0.00 66 1012.0
20260905215505 35 332 0.0 1.6 0.00 0.00 0.00 66 1012.0
20260905215128 35 311 0.0 0.0 0.00 0.00 0.00 67 1012.0
20260905214957 35 311 0.0 0.0 0.00 0.00 0.00 67 1012.0
20260905214640 35 295 0.0 1.6 0.00 0.00 0.00 66 1011.9
20260905214148 35 276 0.0 1.6 0.00 0.00 0.00 67 1011.9
20260905213658 35 312 0.0 0.0 0.00 0.00 0.00 66 1011.9
20260905213506 35 312 0.0 0.0 0.00 0.00 0.00 66 1011.9
20260905213210 35 288 0.0 1.6 0.00 0.00 0.00 67 1011.9
20260905212958 35 288 0.0 1.6 0.00 0.00 0.00 67 1011.9
20260905212718 35 267 0.0 1.6 0.00 0.00 0.00 68 1012.0
20260905212501 35 267 0.0 1.6 0.00 0.00 0.00 68 1012.0
20260905212004 35 295 0.0 0.0 0.00 0.00 0.00 69 1012.0
20260905210959 35 220 0.0 0.0 0.00 0.00 0.00 69 1012.0
20260905210759 35 316 0.0 0.0 0.00 0.00 0.00 68 1012.1
20260905210503 35 316 0.0 0.0 0.00 0.00 0.00 68 1012.1
20260905210005 35 298 0.0 0.0 0.00 0.00 0.00 67 1011.9
20260905205818 35 302 0.0 1.6 0.00 0.00 0.00 68 1012.0
20260905205328 35 295 0.0 1.6 0.00 0.00 0.00 67 1011.9
20260905205000 35 295 0.0 1.6 0.00 0.00 0.00 67 1011.9
20260905204838 35 299 0.0 0.0 0.00 0.00 0.00 67 1011.9
20260905204503 35 299 0.0 0.0 0.00 0.00 0.00 67 1011.9
20260905204005 35 293 0.0 1.6 0.00 0.00 0.00 67 1011.9
20260905203458 35 313 0.0 1.6 0.00 0.00 0.00 66 1011.9
20260905203002 35 282 0.0 1.6 0.00 0.00 0.00 66 1011.9
20260905202918 35 306 0.0 1.6 0.00 0.00 0.00 65 1011.9
20260905202504 35 306 0.0 1.6 0.00 0.00 0.00 65 1011.9
20260905202429 35 334 0.0 1.6 0.00 0.00 0.00 65 1011.9
20260905201938 35 321 0.0 3.2 0.00 0.00 0.00 65 1012.0
20260905201459 35 321 0.0 3.2 0.00 0.00 0.00 65 1012.0
20260905200957 35 300 0.0 3.2 0.00 0.00 0.00 65 1012.1
20260905200505 36 323 0.0 3.2 0.00 0.00 0.00 64 1012.1
20260905200018 35 339 0.0 0.0 0.00 0.00 0.00 64 1013.0
20260905195500 35 297 0.0 0.0 0.00 0.00 0.00 65 1012.9
20260905195002 35 245 0.0 0.0 0.00 0.00 0.00 65 1012.9
20260905194548 35 276 0.0 1.6 0.00 0.00 0.00 64 1012.9
20260905193958 36 303 0.0 1.6 0.00 0.00 0.00 63 1012.9
20260905193608 36 286 0.0 1.6 0.00 0.00 0.00 64 1012.9
20260905193501 36 286 0.0 1.6 0.00 0.00 0.00 64 1012.9
20260905193117 35 306 0.0 3.2 0.00 0.00 0.00 63 1013.0
20260905193004 35 306 0.0 3.2 0.00 0.00 0.00 63 1013.0
20260905192628 35 276 0.0 3.2 0.00 0.00 0.00 64 1012.9
20260905192507 35 276 0.0 3.2 0.00 0.00 0.00 64 1012.9
20260905192138 35 270 0.0 4.8 0.00 0.00 0.00 64 1012.9
20260905191958 35 270 0.0 4.8 0.00 0.00 0.00 64 1012.9
20260905191648 35 309 0.0 4.8 0.00 0.00 0.00 65 1013.0
20260905191502 35 309 0.0 4.8 0.00 0.00 0.00 65 1013.0
20260905191201 34 228 0.0 4.8 0.00 0.00 0.00 66 1012.9
20260905191005 34 228 0.0 4.8 0.00 0.00 0.00 66 1012.9
20260905190456 34 187 0.0 4.8 0.00 0.00 0.00 67 1013.2
20260905190000 34 201 0.0 3.2 0.00 0.00 0.00 65 1013.8
20260905185728 34 103 0.0 0.0 0.00 0.00 0.00 65 1013.9
20260905185502 34 103 0.0 0.0 0.00 0.00 0.00 65 1013.9
20260905185238 34 226 0.0 0.0 0.00 0.00 0.00 65 1013.9
20260905185005 34 226 0.0 0.0 0.00 0.00 0.00 65 1013.9
20260905184747 34 200 0.0 0.0 0.00 0.00 0.00 65 1014.0
20260905184258 35 244 0.0 0.0 0.00 0.00 0.00 65 1013.9
20260905184000 35 244 0.0 0.0 0.00 0.00 0.00 65 1013.9
20260905183809 35 298 0.0 0.0 0.00 0.00 0.00 64 1014.0
20260905183504 35 298 0.0 0.0 0.00 0.00 0.00 64 1014.0
20260905183328 35 248 0.0 0.0 0.00 0.00 0.00 64 1013.9
20260905183007 35 248 0.0 0.0 0.00 0.00 0.00 64 1013.9
20260905182458 35 274 0.0 0.0 0.00 0.00 0.00 63 1014.0
20260905182001 35 270 0.0 0.0 0.00 0.00 0.00 63 1014.0
20260905181848 34 272 0.0 0.0 0.00 0.00 0.00 64 1013.9
20260905181505 34 272 0.0 0.0 0.00 0.00 0.00 64 1013.9
20260905180956 34 242 0.0 0.0 0.00 0.00 0.00 64 1014.1
20260905180501 33 294 0.0 1.6 0.00 0.00 0.00 64 1014.0
20260905180419 33 295 0.0 1.6 0.00 0.00 0.00 64 1014.0
20260905180003 33 295 0.0 1.6 0.00 0.00 0.00 64 1014.0
20260905175505 33 87 0.0 0.0 0.00 0.00 0.00 64 1013.9
20260905174957 33 273 0.0 0.0 0.00 0.00 0.00 63 1013.9
20260905174501 33 256 0.0 0.0 0.00 0.00 0.00 63 1014.0
20260905174003 33 317 0.0 0.0 0.00 0.00 0.00 64 1013.9
20260905173507 32 217 0.0 0.0 0.00 0.00 0.00 64 1013.9
20260905172958 32 219 0.0 0.0 0.00 0.00 0.00 63 1014.0
20260905172501 32 187 0.0 3.2 0.00 0.00 0.00 62 1014.3
20260905172005 32 221 0.0 3.2 0.00 0.00 0.00 62 1014.1
20260905171557 32 342 0.0 0.0 0.00 0.00 0.00 62 1014.2
20260905171456 32 342 0.0 0.0 0.00 0.00 0.00 62 1014.2
20260905171000 31 99 0.0 0.0 0.00 0.00 0.00 61 1014.1
20260905170617 31 268 0.0 0.0 0.00 0.00 0.00 61 1014.8
20260905170502 31 268 0.0 0.0 0.00 0.00 0.00 61 1014.8
20260905170324 31 238 0.0 0.0 0.00 0.00 0.00 61 1014.9
20260905170128 31 238 0.0 0.0 0.00 0.00 0.00 61 1014.9
20260905170006 31 238 0.0 0.0 0.00 0.00 0.00 61 1014.9
20260905165638 31 250 0.0 0.0 0.00 0.00 0.00 60 1015.0
20260905165457 31 250 0.0 0.0 0.00 0.00 0.00 60 1015.0
20260905165148 31 308 0.0 0.0 0.00 0.00 0.00 60 1014.9
20260905165000 31 308 0.0 0.0 0.00 0.00 0.00 60 1014.9
20260905164700 30 276 0.0 0.0 0.00 0.00 0.00 59 1014.9
20260905164006 30 208 0.0 0.0 0.00 0.00 0.00 58 1014.9
20260905163720 30 274 0.0 0.0 0.00 0.00 0.00 58 1014.9
20260905163458 30 274 0.0 0.0 0.00 0.00 0.00 58 1014.9
20260905163001 30 86 0.0 0.0 0.00 0.00 0.00 57 1015.1
20260905162739 30 196 0.0 0.0 0.00 0.00 0.00 56 1015.7
20260905162505 30 196 0.0 0.0 0.00 0.00 0.00 56 1015.7
20260905162249 30 275 0.0 0.0 0.00 0.00 0.00 55 1015.6
20260905161958 30 275 0.0 0.0 0.00 0.00 0.00 55 1015.6
20260905161758 29 207 0.0 0.0 0.00 0.00 0.00 55 1014.9
20260905161501 29 207 0.0 0.0 0.00 0.00 0.00 55 1014.9
20260905161310 29 94 0.0 0.0 0.00 0.00 0.00 55 1014.9
20260905161003 29 94 0.0 0.0 0.00 0.00 0.00 55 1014.9
20260905160820 29 99 0.0 0.0 0.00 0.00 0.00 54 1014.9
20260905160506 29 99 0.0 0.0 0.00 0.00 0.00 54 1014.9
20260905160328 29 84 0.0 0.0 0.00 0.00 0.00 53 1014.9
20260905155958 29 84 0.0 0.0 0.00 0.00 0.00 53 1014.9
20260905155837 29 125 0.0 0.0 0.00 0.00 0.00 51 1015.1
20260905155501 29 125 0.0 0.0 0.00 0.00 0.00 51 1015.1
20260905155350 29 197 0.0 0.0 0.00 0.00 0.00 49 1015.6
20260905154858 28 220 0.0 0.0 0.00 0.00 0.00 49 1015.7
20260905154506 28 220 0.0 0.0 0.00 0.00 0.00 49 1015.7
20260905153958 28 289 0.0 0.0 0.00 0.00 0.00 48 1015.9
20260905153928 28 197 0.0 0.0 0.00 0.00 0.00 48 1016.0
20260905153501 28 197 0.0 0.0 0.00 0.00 0.00 48 1016.0
20260905153005 28 211 0.0 0.0 0.00 0.00 0.00 47 1016.0
20260905151957 28 238 0.0 0.0 0.00 0.00 0.00 47 1016.0
20260905151502 28 98 0.0 0.0 0.00 0.00 0.00 45 1015.9
20260905151006 28 198 0.0 0.0 0.00 0.00 0.00 45 1016.0
20260905150458 28 108 0.0 0.0 0.00 0.00 0.00 43 1015.9
20260905150001 28 97 0.0 0.0 0.00 0.00 0.00 41 1016.0
20260905145503 28 132 0.0 0.0 0.00 0.00 0.00 40 1015.9
20260905145006 28 83 0.0 0.0 0.00 0.00 0.00 38 1015.9
20260905144607 28 99 0.0 0.0 0.00 0.00 0.00 37 1016.0
20260905144117 28 117 0.0 0.0 0.00 0.00 0.00 35 1016.1
20260905144002 28 117 0.0 0.0 0.00 0.00 0.00 35 1016.1
20260905143627 27 335 0.0 0.0 0.00 0.00 0.00 33 1015.9
20260905143504 27 335 0.0 0.0 0.00 0.00 0.00 33 1015.9
20260905143137 27 90 0.0 0.0 0.00 0.00 0.00 33 1016.1
20260905142957 27 90 0.0 0.0 0.00 0.00 0.00 33 1016.1
20260905142657 27 87 0.0 0.0 0.00 0.00 0.00 31 1015.9
20260905142459 27 87 0.0 0.0 0.00 0.00 0.00 31 1015.9
20260905142159 26 112 0.0 0.0 0.00 0.00 0.00 29 1015.9
20260905142015 26 112 0.0 0.0 0.00 0.00 0.00 29 1015.9
20260905141505 26 36 0.0 0.0 0.00 0.00 0.00 28 1015.9
20260905141217 26 55 0.0 0.0 0.00 0.00 0.00 26 1015.9
20260905140957 26 55 0.0 0.0 0.00 0.00 0.00 26 1015.9
20260905140500 26 53 0.0 0.0 0.00 0.00 0.00 24 1015.9
20260905140006 26 30 0.0 0.0 0.00 0.00 0.00 21 1015.9
20260905135748 25 46 0.0 0.0 0.00 0.00 0.00 19 1015.9
20260905134959 25 85 0.0 0.0 0.00 0.00 0.00 15 1016.1
20260905134809 25 32 0.0 0.0 0.00 0.00 0.00 14 1016.8
20260905134507 25 32 0.0 0.0 0.00 0.00 0.00 14 1016.8
20260905134318 25 53 0.0 0.0 0.00 0.00 0.00 12 1016.3
20260905134004 25 53 0.0 0.0 0.00 0.00 0.00 12 1016.3
20260905133501 25 57 0.0 0.0 0.00 0.00 0.00 7 1016.4
20260905133343 25 56 0.0 0.0 0.00 0.00 0.00 5 1016.2
20260905132959 25 56 0.0 0.0 0.00 0.00 0.00 5 1016.2
20260905132905 25 47 0.0 0.0 0.00 0.00 0.00 7 1016.9
20260905132005 25 25 0.0 0.0 0.00 0.00 0.00 7 1016.9
20260905131911 25 340 0.0 0.0 0.00 0.00 0.00 1016.9
20260905131004 25 4 0.0 0.0 0.00 0.00 0.00 45 1016.9
20260905130935 25 266 0.0 1.6 0.00 0.00 0.00 54 1017.0
20260905130501 25 266 0.0 1.6 0.00 0.00 0.00 54 1017.0
20260905130437 25 279 0.0 1.6 0.00 0.00 0.00 52 1016.9